Location: Arboyeti
(42.1122°N, 44.6017°E)
Time: 02:41:42
(UTC+00:00)

ISS - Pass Details

Date: 30 September 2021
Orbit: 417 x 423 km, 51.6° (Epoch: 27 October)

Event Time Altitude Azimuth Distance (km) Brightness Sun altitude
Rises 17:32:41 0° 303° (WNW) 2,367 1.2 -31.0°
Reaches altitude 10° 17:34:48 10° 300° (WNW) 1,502 -0.1 -31.4°
Enters shadow 17:35:06 12° 300° (WNW) 1,376 -0.3 -31.4°
